owner,sensor,date,latitude,longitude,vertical_datum,wind_speed,wind_to_direction,wind_speed_of_gust,qcFlag 
TCOON,ioos:station:TCOON:003:1,2019-02-01T00:00:00Z,26.8015,-97.4706,0.0,3.5,125.0,4.1,'11111222,11111222,11111222' 
TCOON,ioos:station:TCOON:003:1,2019-02-01T00:06:00Z,26.8015,-97.4706,0.0,3.4,127.0,3.6,'11111222,11111222,11111222' 
TCOON,ioos:station:TCOON:003:1,2019-02-01T00:12:00Z,26.8015,-97.4706,0.0,2.8,131.0,3.6,'11111222,11111222,11111222' 
TCOON,ioos:station:TCOON:003:1,2019-02-01T00:18:00Z,26.8015,-97.4706,0.0,2.9,138.0,3.6,'11111222,11111222,11111222' 
TCOON,ioos:station:TCOON:003:1,2019-02-01T00:24:00Z,26.8015,-97.4706,0.0,2.9,138.0,3.6,'1111122,1111122,1111122' 
TCOON,ioos:station:TCOON:003:1,2019-02-01T00:30:00Z,26.8015,-97.4706,0.0,3.7,139.0,4.3,'11111222,11111222,11111222' 
TCOON,ioos:station:TCOON:003:1,2019-02-01T00:36:00Z,26.8015,-97.4706,0.0,3.6,152.0,4.1,'11111222,11111222,11111222' 
TCOON,ioos:station:TCOON:003:1,2019-02-01T00:42:00Z,26.8015,-97.4706,0.0,3.6,156.0,3.9,'11111222,11111222,11111222' 
TCOON,ioos:station:TCOON:003:1,2019-02-01T00:48:00Z,26.8015,-97.4706,0.0,3.5,170.0,4.2,'11111222,11111222,11111222' 
TCOON,ioos:station:TCOON:003:1,2019-02-01T00:54:00Z,26.8015,-97.4706,0.0,3.3,183.0,3.9,'11111222,11111222,11111222' 
TCOON,ioos:station:TCOON:003:1,2019-02-01T01:00:00Z,26.8015,-97.4706,0.0,3.7,175.0,4.1,'11111222,11111222,11111222' 
TCOON,ioos:station:TCOON:003:1,2019-02-01T01:06:00Z,26.8015,-97.4706,0.0,3.2,173.0,3.7,'11111222,11111222,11111222' 
TCOON,ioos:station:TCOON:003:1,2019-02-01T01:12:00Z,26.8015,-97.4706,0.0,2.5,149.0,3.1,'11111222,11111222,11111222' 
TCOON,ioos:station:TCOON:003:1,2019-02-01T01:18:00Z,26.8015,-97.4706,0.0,2.8,123.0,3.1,'11111222,11111222,11111222' 
TCOON,ioos:station:TCOON:003:1,2019-02-01T01:24:00Z,26.8015,-97.4706,0.0,2.8,123.0,3.1,'1111122,1111122,1111122' 
TCOON,ioos:station:TCOON:003:1,2019-02-01T01:30:00Z,26.8015,-97.4706,0.0,2.1,147.0,2.7,'11111222,11111222,11111222' 
TCOON,ioos:station:TCOON:003:1,2019-02-01T01:36:00Z,26.8015,-97.4706,0.0,1.8,140.0,2.3,'11111222,11111222,11111222' 
TCOON,ioos:station:TCOON:003:1,2019-02-01T01:42:00Z,26.8015,-97.4706,0.0,2.2,154.0,2.3,'11111222,11111222,11111222' 
TCOON,ioos:station:TCOON:003:1,2019-02-01T01:48:00Z,26.8015,-97.4706,0.0,1.9,175.0,2.2,'11111222,11111222,11111222' 
TCOON,ioos:station:TCOON:003:1,2019-02-01T01:54:00Z,26.8015,-97.4706,0.0,2.0,184.0,2.2,'11111222,11111222,11111222' 
TCOON,ioos:station:TCOON:003:1,2019-02-01T02:00:00Z,26.8015,-97.4706,0.0,2.3,204.0,2.4,'11111222,11111222,11111222' 
TCOON,ioos:station:TCOON:003:1,2019-02-01T02:06:00Z,26.8015,-97.4706,0.0,2.7,225.0,3.1,'11111222,11111222,11111222' 
TCOON,ioos:station:TCOON:003:1,2019-02-01T02:12:00Z,26.8015,-97.4706,0.0,3.2,232.0,3.8,'11111222,11111222,11111222' 
TCOON,ioos:station:TCOON:003:1,2019-02-01T02:18:00Z,26.8015,-97.4706,0.0,3.0,239.0,4.1,'11111222,11111222,11111222' 
TCOON,ioos:station:TCOON:003:1,2019-02-01T02:24:00Z,26.8015,-97.4706,0.0,3.0,239.0,4.1,'1111122,1111122,1111122' 
TCOON,ioos:station:TCOON:003:1,2019-02-01T02:30:00Z,26.8015,-97.4706,0.0,2.0,244.0,2.4,'11111222,11111222,11111222' 
TCOON,ioos:station:TCOON:003:1,2019-02-01T02:36:00Z,26.8015,-97.4706,0.0,1.6,250.0,2.2,'11111222,11111222,11111222' 
TCOON,ioos:station:TCOON:003:1,2019-02-01T02:42:00Z,26.8015,-97.4706,0.0,1.7,238.0,1.9,'11111222,11111222,11111222' 
TCOON,ioos:station:TCOON:003:1,2019-02-01T02:48:00Z,26.8015,-97.4706,0.0,2.0,228.0,2.2,'11111222,11111222,11111222' 
TCOON,ioos:station:TCOON:003:1,2019-02-01T02:54:00Z,26.8015,-97.4706,0.0,2.1,224.0,2.2,'11111222,11111222,11111222' 
TCOON,ioos:station:TCOON:003:1,2019-02-01T03:00:00Z,26.8015,-97.4706,0.0,2.5,216.0,2.7,'11111222,11111222,11111222' 
TCOON,ioos:station:TCOON:003:1,2019-02-01T03:06:00Z,26.8015,-97.4706,0.0,2.9,225.0,3.1,'11111222,11111222,11111222' 
TCOON,ioos:station:TCOON:003:1,2019-02-01T03:12:00Z,26.8015,-97.4706,0.0,2.6,209.0,3.0,'11111222,11111222,11111222' 
TCOON,ioos:station:TCOON:003:1,2019-02-01T03:18:00Z,26.8015,-97.4706,0.0,2.6,201.0,2.9,'11111222,11111222,11111222' 
TCOON,ioos:station:TCOON:003:1,2019-02-01T03:24:00Z,26.8015,-97.4706,0.0,2.6,201.0,2.9,'1111122,1111122,1111122' 
TCOON,ioos:station:TCOON:003:1,2019-02-01T03:30:00Z,26.8015,-97.4706,0.0,3.1,214.0,3.3,'11111222,11111222,11111222' 
TCOON,ioos:station:TCOON:003:1,2019-02-01T03:36:00Z,26.8015,-97.4706,0.0,3.3,228.0,3.6,'11111222,11111222,11111222' 
TCOON,ioos:station:TCOON:003:1,2019-02-01T03:42:00Z,26.8015,-97.4706,0.0,3.3,229.0,3.7,'11111222,11111222,11111222' 
TCOON,ioos:station:TCOON:003:1,2019-02-01T03:48:00Z,26.8015,-97.4706,0.0,2.9,225.0,3.5,'11111222,11111222,11111222' 
TCOON,ioos:station:TCOON:003:1,2019-02-01T03:54:00Z,26.8015,-97.4706,0.0,2.4,236.0,3.1,'11111222,11111222,11111222' 
TCOON,ioos:station:TCOON:003:1,2019-02-01T04:00:00Z,26.8015,-97.4706,0.0,2.6,245.0,3.0,'11111222,11111222,11111222' 
TCOON,ioos:station:TCOON:003:1,2019-02-01T04:06:00Z,26.8015,-97.4706,0.0,2.6,252.0,3.3,'11111222,11111222,11111222' 
TCOON,ioos:station:TCOON:003:1,2019-02-01T04:12:00Z,26.8015,-97.4706,0.0,2.7,252.0,3.0,'11111222,11111222,11111222' 
TCOON,ioos:station:TCOON:003:1,2019-02-01T04:18:00Z,26.8015,-97.4706,0.0,2.9,245.0,3.5,'11111222,11111222,11111222' 
TCOON,ioos:station:TCOON:003:1,2019-02-01T04:24:00Z,26.8015,-97.4706,0.0,2.9,245.0,3.5,'1111122,1111122,1111122' 
TCOON,ioos:station:TCOON:003:1,2019-02-01T04:30:00Z,26.8015,-97.4706,0.0,3.1,234.0,3.4,'11111222,11111222,11111222' 
TCOON,ioos:station:TCOON:003:1,2019-02-01T04:36:00Z,26.8015,-97.4706,0.0,3.0,228.0,3.5,'11111222,11111222,11111222' 
TCOON,ioos:station:TCOON:003:1,2019-02-01T04:42:00Z,26.8015,-97.4706,0.0,3.1,228.0,3.8,'11111222,11111222,11111222' 
TCOON,ioos:station:TCOON:003:1,2019-02-01T04:48:00Z,26.8015,-97.4706,0.0,3.2,228.0,3.8,'11111222,11111222,11111222' 
TCOON,ioos:station:TCOON:003:1,2019-02-01T04:54:00Z,26.8015,-97.4706,0.0,2.7,230.0,3.4,'11111222,11111222,11111222' 
TCOON,ioos:station:TCOON:003:1,2019-02-01T05:00:00Z,26.8015,-97.4706,0.0,2.8,235.0,3.3,'11111222,11111222,11111222' 
TCOON,ioos:station:TCOON:003:1,2019-02-01T05:06:00Z,26.8015,-97.4706,0.0,2.7,237.0,3.1,'11111222,11111222,11111222' 
TCOON,ioos:station:TCOON:003:1,2019-02-01T05:12:00Z,26.8015,-97.4706,0.0,2.5,239.0,3.4,'11111222,11111222,11111222' 
TCOON,ioos:station:TCOON:003:1,2019-02-01T05:18:00Z,26.8015,-97.4706,0.0,2.1,245.0,2.9,'11111222,11111222,11111222' 
TCOON,ioos:station:TCOON:003:1,2019-02-01T05:24:00Z,26.8015,-97.4706,0.0,2.1,245.0,2.9,'1111122,1111122,1111122' 
TCOON,ioos:station:TCOON:003:1,2019-02-01T05:30:00Z,26.8015,-97.4706,0.0,2.4,243.0,2.7,'11111222,11111222,11111222' 
TCOON,ioos:station:TCOON:003:1,2019-02-01T05:36:00Z,26.8015,-97.4706,0.0,1.9,250.0,2.5,'11111222,11111222,11111222' 
TCOON,ioos:station:TCOON:003:1,2019-02-01T05:42:00Z,26.8015,-97.4706,0.0,2.3,246.0,2.5,'11111222,11111222,11111222' 
TCOON,ioos:station:TCOON:003:1,2019-02-01T05:48:00Z,26.8015,-97.4706,0.0,2.0,248.0,2.5,'11111222,11111222,11111222' 
TCOON,ioos:station:TCOON:003:1,2019-02-01T05:54:00Z,26.8015,-97.4706,0.0,2.0,243.0,2.3,'11111222,11111222,11111222' 
TCOON,ioos:station:TCOON:003:1,2019-02-01T06:00:00Z,26.8015,-97.4706,0.0,2.3,234.0,2.7,'11111222,11111222,11111222' 
TCOON,ioos:station:TCOON:003:1,2019-02-01T06:06:00Z,26.8015,-97.4706,0.0,2.4,229.0,2.7,'11111222,11111222,11111222' 
TCOON,ioos:station:TCOON:003:1,2019-02-01T06:12:00Z,26.8015,-97.4706,0.0,2.0,244.0,2.5,'11111222,11111222,11111222' 
TCOON,ioos:station:TCOON:003:1,2019-02-01T06:18:00Z,26.8015,-97.4706,0.0,2.8,242.0,3.1,'11111222,11111222,11111222' 
TCOON,ioos:station:TCOON:003:1,2019-02-01T06:24:00Z,26.8015,-97.4706,0.0,2.8,242.0,3.1,'1111122,1111122,1111122' 
TCOON,ioos:station:TCOON:003:1,2019-02-01T06:30:00Z,26.8015,-97.4706,0.0,2.7,250.0,4.0,'11111222,11111222,11111222' 
TCOON,ioos:station:TCOON:003:1,2019-02-01T06:36:00Z,26.8015,-97.4706,0.0,2.3,241.0,2.8,'11111222,11111222,11111222' 
TCOON,ioos:station:TCOON:003:1,2019-02-01T06:42:00Z,26.8015,-97.4706,0.0,2.4,243.0,2.8,'11111222,11111222,11111222' 
TCOON,ioos:station:TCOON:003:1,2019-02-01T06:48:00Z,26.8015,-97.4706,0.0,1.9,242.0,2.8,'11111222,11111222,11111222' 
TCOON,ioos:station:TCOON:003:1,2019-02-01T06:54:00Z,26.8015,-97.4706,0.0,1.8,242.0,2.6,'11111222,11111222,11111222' 
TCOON,ioos:station:TCOON:003:1,2019-02-01T07:00:00Z,26.8015,-97.4706,0.0,2.4,247.0,2.9,'11111222,11111222,11111222' 
TCOON,ioos:station:TCOON:003:1,2019-02-01T07:06:00Z,26.8015,-97.4706,0.0,2.4,242.0,3.0,'11111222,11111222,11111222' 
TCOON,ioos:station:TCOON:003:1,2019-02-01T07:12:00Z,26.8015,-97.4706,0.0,2.4,240.0,2.8,'11111222,11111222,11111222' 
TCOON,ioos:station:TCOON:003:1,2019-02-01T07:18:00Z,26.8015,-97.4706,0.0,2.6,233.0,3.2,'11111222,11111222,11111222' 
TCOON,ioos:station:TCOON:003:1,2019-02-01T07:24:00Z,26.8015,-97.4706,0.0,2.6,233.0,3.2,'1111122,1111122,1111122' 
TCOON,ioos:station:TCOON:003:1,2019-02-01T07:30:00Z,26.8015,-97.4706,0.0,2.7,235.0,3.1,'11111222,11111222,11111222' 
TCOON,ioos:station:TCOON:003:1,2019-02-01T07:36:00Z,26.8015,-97.4706,0.0,3.1,245.0,3.4,'11111222,11111222,11111222' 
TCOON,ioos:station:TCOON:003:1,2019-02-01T07:42:00Z,26.8015,-97.4706,0.0,3.5,236.0,3.7,'11111222,11111222,11111222' 
TCOON,ioos:station:TCOON:003:1,2019-02-01T07:48:00Z,26.8015,-97.4706,0.0,3.2,237.0,3.9,'11111222,11111222,11111222' 
TCOON,ioos:station:TCOON:003:1,2019-02-01T07:54:00Z,26.8015,-97.4706,0.0,3.4,226.0,3.8,'11111222,11111222,11111222' 
TCOON,ioos:station:TCOON:003:1,2019-02-01T08:00:00Z,26.8015,-97.4706,0.0,3.3,228.0,3.6,'11111222,11111222,11111222' 
TCOON,ioos:station:TCOON:003:1,2019-02-01T08:06:00Z,26.8015,-97.4706,0.0,3.2,231.0,3.8,'11111222,11111222,11111222' 
TCOON,ioos:station:TCOON:003:1,2019-02-01T08:12:00Z,26.8015,-97.4706,0.0,2.8,229.0,3.3,'11111222,11111222,11111222' 
TCOON,ioos:station:TCOON:003:1,2019-02-01T08:18:00Z,26.8015,-97.4706,0.0,2.7,233.0,3.2,'11111222,11111222,11111222' 
TCOON,ioos:station:TCOON:003:1,2019-02-01T08:24:00Z,26.8015,-97.4706,0.0,2.7,233.0,3.2,'1111122,1111122,1111122' 
TCOON,ioos:station:TCOON:003:1,2019-02-01T08:30:00Z,26.8015,-97.4706,0.0,3.0,225.0,3.4,'11111222,11111222,11111222' 
TCOON,ioos:station:TCOON:003:1,2019-02-01T08:36:00Z,26.8015,-97.4706,0.0,2.7,228.0,3.0,'11111222,11111222,11111222' 
TCOON,ioos:station:TCOON:003:1,2019-02-01T08:42:00Z,26.8015,-97.4706,0.0,2.3,226.0,3.0,'11111222,11111222,11111222' 
TCOON,ioos:station:TCOON:003:1,2019-02-01T08:48:00Z,26.8015,-97.4706,0.0,2.0,226.0,2.5,'11111222,11111222,11111222' 
TCOON,ioos:station:TCOON:003:1,2019-02-01T08:54:00Z,26.8015,-97.4706,0.0,1.7,223.0,2.3,'11111222,11111222,11111222' 
TCOON,ioos:station:TCOON:003:1,2019-02-01T09:00:00Z,26.8015,-97.4706,0.0,2.4,217.0,2.7,'11111222,11111222,11111222' 
TCOON,ioos:station:TCOON:003:1,2019-02-01T09:06:00Z,26.8015,-97.4706,0.0,2.6,231.0,2.8,'11111222,11111222,11111222' 
TCOON,ioos:station:TCOON:003:1,2019-02-01T09:12:00Z,26.8015,-97.4706,0.0,2.4,228.0,2.7,'11111222,11111222,11111222' 
TCOON,ioos:station:TCOON:003:1,2019-02-01T09:18:00Z,26.8015,-97.4706,0.0,1.8,223.0,2.5,'11111222,11111222,11111222' 
TCOON,ioos:station:TCOON:003:1,2019-02-01T09:24:00Z,26.8015,-97.4706,0.0,1.8,223.0,2.5,'1111122,1111122,1111122' 
TCOON,ioos:station:TCOON:003:1,2019-02-01T09:30:00Z,26.8015,-97.4706,0.0,2.5,218.0,2.7,'11111222,11111222,11111222' 
TCOON,ioos:station:TCOON:003:1,2019-02-01T09:36:00Z,26.8015,-97.4706,0.0,2.7,221.0,2.9,'11111222,11111222,11111222' 
TCOON,ioos:station:TCOON:003:1,2019-02-01T09:42:00Z,26.8015,-97.4706,0.0,2.5,226.0,3.2,'11111222,11111222,11111222' 
TCOON,ioos:station:TCOON:003:1,2019-02-01T09:48:00Z,26.8015,-97.4706,0.0,2.6,222.0,3.1,'11111222,11111222,11111222' 
TCOON,ioos:station:TCOON:003:1,2019-02-01T09:54:00Z,26.8015,-97.4706,0.0,3.1,217.0,3.3,'11111222,11111222,11111222' 
TCOON,ioos:station:TCOON:003:1,2019-02-01T10:00:00Z,26.8015,-97.4706,0.0,2.6,223.0,3.4,'11111222,11111222,11111222' 
TCOON,ioos:station:TCOON:003:1,2019-02-01T10:06:00Z,26.8015,-97.4706,0.0,3.3,213.0,3.7,'11111222,11111222,11111222' 
TCOON,ioos:station:TCOON:003:1,2019-02-01T10:12:00Z,26.8015,-97.4706,0.0,3.8,219.0,4.2,'11111222,11111222,11111222' 
TCOON,ioos:station:TCOON:003:1,2019-02-01T10:18:00Z,26.8015,-97.4706,0.0,3.7,223.0,4.5,'11111222,11111222,11111222' 
TCOON,ioos:station:TCOON:003:1,2019-02-01T10:24:00Z,26.8015,-97.4706,0.0,3.7,223.0,4.5,'1111122,1111122,1111122' 
TCOON,ioos:station:TCOON:003:1,2019-02-01T10:30:00Z,26.8015,-97.4706,0.0,2.4,222.0,2.8,'11111222,11111222,11111222' 
TCOON,ioos:station:TCOON:003:1,2019-02-01T10:36:00Z,26.8015,-97.4706,0.0,2.6,227.0,2.9,'11111222,11111222,11111222' 
TCOON,ioos:station:TCOON:003:1,2019-02-01T10:42:00Z,26.8015,-97.4706,0.0,2.3,226.0,2.9,'11111222,11111222,11111222' 
TCOON,ioos:station:TCOON:003:1,2019-02-01T10:48:00Z,26.8015,-97.4706,0.0,1.5,235.0,2.3,'11111222,11111222,11111222' 
TCOON,ioos:station:TCOON:003:1,2019-02-01T10:54:00Z,26.8015,-97.4706,0.0,1.3,231.0,2.2,'11111222,11111222,11111222' 
TCOON,ioos:station:TCOON:003:1,2019-02-01T11:00:00Z,26.8015,-97.4706,0.0,0.3,272.0,1.3,'11111222,11111222,11111222' 
TCOON,ioos:station:TCOON:003:1,2019-02-01T11:06:00Z,26.8015,-97.4706,0.0,0.9,316.0,1.2,'11111222,11111222,11111222' 
TCOON,ioos:station:TCOON:003:1,2019-02-01T11:12:00Z,26.8015,-97.4706,0.0,1.3,313.0,1.8,'11111222,11111222,11111222' 
TCOON,ioos:station:TCOON:003:1,2019-02-01T11:18:00Z,26.8015,-97.4706,0.0,1.3,292.0,1.7,'11111222,11111222,11111222' 
TCOON,ioos:station:TCOON:003:1,2019-02-01T11:24:00Z,26.8015,-97.4706,0.0,1.3,292.0,1.7,'1111122,1111122,1111122' 
TCOON,ioos:station:TCOON:003:1,2019-02-01T11:30:00Z,26.8015,-97.4706,0.0,1.6,287.0,2.3,'11111222,11111222,11111222' 
TCOON,ioos:station:TCOON:003:1,2019-02-01T11:36:00Z,26.8015,-97.4706,0.0,1.4,291.0,1.7,'11111222,11111222,11111222' 
TCOON,ioos:station:TCOON:003:1,2019-02-01T11:42:00Z,26.8015,-97.4706,0.0,1.7,295.0,2.0,'11111222,11111222,11111222' 
TCOON,ioos:station:TCOON:003:1,2019-02-01T11:48:00Z,26.8015,-97.4706,0.0,2.1,317.0,2.4,'11111222,11111222,11111222' 
TCOON,ioos:station:TCOON:003:1,2019-02-01T11:54:00Z,26.8015,-97.4706,0.0,1.9,310.0,2.6,'11111222,11111222,11111222' 
TCOON,ioos:station:TCOON:003:1,2019-02-01T12:00:00Z,26.8015,-97.4706,0.0,1.8,332.0,2.5,'11111222,11111222,11111222' 
TCOON,ioos:station:TCOON:003:1,2019-02-01T12:06:00Z,26.8015,-97.4706,0.0,2.6,347.0,2.8,'11111222,11111222,11111222' 
TCOON,ioos:station:TCOON:003:1,2019-02-01T12:12:00Z,26.8015,-97.4706,0.0,2.0,334.0,2.8,'11111222,11111222,11111222' 
TCOON,ioos:station:TCOON:003:1,2019-02-01T12:18:00Z,26.8015,-97.4706,0.0,2.0,349.0,2.5,'11111222,11111222,11111222' 
TCOON,ioos:station:TCOON:003:1,2019-02-01T12:24:00Z,26.8015,-97.4706,0.0,2.0,349.0,2.5,'1111122,1111122,1111122' 
TCOON,ioos:station:TCOON:003:1,2019-02-01T12:30:00Z,26.8015,-97.4706,0.0,2.7,349.0,2.9,'11111222,11111222,11111222' 
TCOON,ioos:station:TCOON:003:1,2019-02-01T12:36:00Z,26.8015,-97.4706,0.0,2.3,356.0,3.1,'11111222,11111222,11111222' 
TCOON,ioos:station:TCOON:003:1,2019-02-01T12:42:00Z,26.8015,-97.4706,0.0,2.3,347.0,2.6,'11111222,11111222,11111222' 
TCOON,ioos:station:TCOON:003:1,2019-02-01T12:48:00Z,26.8015,-97.4706,0.0,2.1,336.0,2.5,'11111222,11111222,11111222' 
TCOON,ioos:station:TCOON:003:1,2019-02-01T12:54:00Z,26.8015,-97.4706,0.0,2.1,332.0,2.4,'11111222,11111222,11111222' 
TCOON,ioos:station:TCOON:003:1,2019-02-01T13:00:00Z,26.8015,-97.4706,0.0,2.3,335.0,2.7,'11111222,11111222,11111222' 
TCOON,ioos:station:TCOON:003:1,2019-02-01T13:06:00Z,26.8015,-97.4706,0.0,1.9,329.0,2.7,'11111222,11111222,11111222' 
TCOON,ioos:station:TCOON:003:1,2019-02-01T13:12:00Z,26.8015,-97.4706,0.0,1.9,329.0,2.2,'11111222,11111222,11111222' 
TCOON,ioos:station:TCOON:003:1,2019-02-01T13:18:00Z,26.8015,-97.4706,0.0,1.9,333.0,2.3,'11111222,11111222,11111222' 
TCOON,ioos:station:TCOON:003:1,2019-02-01T13:24:00Z,26.8015,-97.4706,0.0,1.9,333.0,2.3,'1111122,1111122,1111122' 
TCOON,ioos:station:TCOON:003:1,2019-02-01T13:30:00Z,26.8015,-97.4706,0.0,2.4,324.0,2.6,'11111222,11111222,11111222' 
TCOON,ioos:station:TCOON:003:1,2019-02-01T13:36:00Z,26.8015,-97.4706,0.0,2.6,319.0,2.8,'11111222,11111222,11111222' 
TCOON,ioos:station:TCOON:003:1,2019-02-01T13:42:00Z,26.8015,-97.4706,0.0,2.2,308.0,2.8,'11111222,11111222,11111222' 
TCOON,ioos:station:TCOON:003:1,2019-02-01T13:48:00Z,26.8015,-97.4706,0.0,2.2,312.0,2.5,'11111222,11111222,11111222' 
TCOON,ioos:station:TCOON:003:1,2019-02-01T13:54:00Z,26.8015,-97.4706,0.0,2.2,307.0,2.4,'11111222,11111222,11111222' 
TCOON,ioos:station:TCOON:003:1,2019-02-01T14:00:00Z,26.8015,-97.4706,0.0,2.3,313.0,2.5,'11111222,11111222,11111222' 
TCOON,ioos:station:TCOON:003:1,2019-02-01T14:06:00Z,26.8015,-97.4706,0.0,2.4,310.0,2.6,'11111222,11111222,11111222' 
TCOON,ioos:station:TCOON:003:1,2019-02-01T14:12:00Z,26.8015,-97.4706,0.0,2.4,302.0,2.7,'11111222,11111222,11111222' 
TCOON,ioos:station:TCOON:003:1,2019-02-01T14:18:00Z,26.8015,-97.4706,0.0,2.5,281.0,2.8,'11111222,11111222,11111222' 
TCOON,ioos:station:TCOON:003:1,2019-02-01T14:24:00Z,26.8015,-97.4706,0.0,2.5,281.0,2.8,'1111122,1111122,1111122' 
TCOON,ioos:station:TCOON:003:1,2019-02-01T14:30:00Z,26.8015,-97.4706,0.0,2.5,267.0,2.8,'11111222,11111222,11111222' 
TCOON,ioos:station:TCOON:003:1,2019-02-01T14:36:00Z,26.8015,-97.4706,0.0,2.7,254.0,2.9,'11111222,11111222,11111222' 
TCOON,ioos:station:TCOON:003:1,2019-02-01T14:42:00Z,26.8015,-97.4706,0.0,3.0,251.0,3.3,'11111222,11111222,11111222' 
TCOON,ioos:station:TCOON:003:1,2019-02-01T14:48:00Z,26.8015,-97.4706,0.0,3.0,261.0,3.2,'11111222,11111222,11111222' 
TCOON,ioos:station:TCOON:003:1,2019-02-01T14:54:00Z,26.8015,-97.4706,0.0,2.7,252.0,3.2,'11111222,11111222,11111222' 
TCOON,ioos:station:TCOON:003:1,2019-02-01T15:00:00Z,26.8015,-97.4706,0.0,2.8,234.0,3.1,'11111222,11111222,11111222' 
TCOON,ioos:station:TCOON:003:1,2019-02-01T15:06:00Z,26.8015,-97.4706,0.0,1.9,242.0,2.9,'11111222,11111222,11111222' 
TCOON,ioos:station:TCOON:003:1,2019-02-01T15:12:00Z,26.8015,-97.4706,0.0,1.3,270.0,2.1,'11111222,11111222,11111222' 
TCOON,ioos:station:TCOON:003:1,2019-02-01T15:18:00Z,26.8015,-97.4706,0.0,1.4,326.0,2.3,'11111222,11111222,11111222' 
TCOON,ioos:station:TCOON:003:1,2019-02-01T15:24:00Z,26.8015,-97.4706,0.0,1.4,326.0,2.3,'1111122,1111122,1111122' 
TCOON,ioos:station:TCOON:003:1,2019-02-01T15:30:00Z,26.8015,-97.4706,0.0,1.9,327.0,2.3,'11111222,11111222,11111222' 
TCOON,ioos:station:TCOON:003:1,2019-02-01T15:36:00Z,26.8015,-97.4706,0.0,2.4,319.0,2.6,'11111222,11111222,11111222' 
TCOON,ioos:station:TCOON:003:1,2019-02-01T15:42:00Z,26.8015,-97.4706,0.0,2.6,322.0,2.9,'11111222,11111222,11111222' 
TCOON,ioos:station:TCOON:003:1,2019-02-01T15:48:00Z,26.8015,-97.4706,0.0,2.5,317.0,2.9,'11111222,11111222,11111222' 
TCOON,ioos:station:TCOON:003:1,2019-02-01T15:54:00Z,26.8015,-97.4706,0.0,1.7,321.0,2.5,'11111222,11111222,11111222' 
TCOON,ioos:station:TCOON:003:1,2019-02-01T16:00:00Z,26.8015,-97.4706,0.0,0.9,315.0,1.7,'11111222,11111222,11111222' 
TCOON,ioos:station:TCOON:003:1,2019-02-01T16:06:00Z,26.8015,-97.4706,0.0,1.5,310.0,1.9,'11111222,11111222,11111222' 
TCOON,ioos:station:TCOON:003:1,2019-02-01T16:12:00Z,26.8015,-97.4706,0.0,1.7,324.0,2.0,'11111222,11111222,11111222' 
TCOON,ioos:station:TCOON:003:1,2019-02-01T16:18:00Z,26.8015,-97.4706,0.0,1.1,318.0,1.6,'11111222,11111222,11111222' 
TCOON,ioos:station:TCOON:003:1,2019-02-01T16:24:00Z,26.8015,-97.4706,0.0,1.1,318.0,1.6,'1111122,1111122,1111122' 
TCOON,ioos:station:TCOON:003:1,2019-02-01T16:30:00Z,26.8015,-97.4706,0.0,0.3,305.0,0.6,'11111222,11111222,11111222' 
TCOON,ioos:station:TCOON:003:1,2019-02-01T16:36:00Z,26.8015,-97.4706,0.0,0.1,265.0,0.7,'11111222,11111222,11111222' 
TCOON,ioos:station:TCOON:003:1,2019-02-01T16:42:00Z,26.8015,-97.4706,0.0,0.0,265.0,0.0,'11111222,11111222,11111222' 
TCOON,ioos:station:TCOON:003:1,2019-02-01T16:48:00Z,26.8015,-97.4706,0.0,0.0,265.0,0.0,'11111222,11111222,11111222' 
TCOON,ioos:station:TCOON:003:1,2019-02-01T16:54:00Z,26.8015,-97.4706,0.0,0.0,265.0,0.0,'11111222,11111222,11111222' 
TCOON,ioos:station:TCOON:003:1,2019-02-01T17:00:00Z,26.8015,-97.4706,0.0,0.0,265.0,0.0,'11111222,11111222,11111222' 
TCOON,ioos:station:TCOON:003:1,2019-02-01T17:06:00Z,26.8015,-97.4706,0.0,0.0,265.0,0.2,'11111222,11111222,11111222' 
TCOON,ioos:station:TCOON:003:1,2019-02-01T17:12:00Z,26.8015,-97.4706,0.0,0.0,265.0,0.0,'11111222,11111222,11111222' 
TCOON,ioos:station:TCOON:003:1,2019-02-01T17:18:00Z,26.8015,-97.4706,0.0,0.0,265.0,0.0,'11111222,11111222,11111222' 
TCOON,ioos:station:TCOON:003:1,2019-02-01T17:24:00Z,26.8015,-97.4706,0.0,0.0,265.0,0.0,'1114422,1111122,1114422' 
TCOON,ioos:station:TCOON:003:1,2019-02-01T17:30:00Z,26.8015,-97.4706,0.0,0.5,328.0,0.9,'11111222,11111222,11111222' 
TCOON,ioos:station:TCOON:003:1,2019-02-01T17:36:00Z,26.8015,-97.4706,0.0,0.3,299.0,0.7,'11111222,11111222,11111222' 
TCOON,ioos:station:TCOON:003:1,2019-02-01T17:42:00Z,26.8015,-97.4706,0.0,0.4,323.0,0.7,'11111222,11111222,11111222' 
TCOON,ioos:station:TCOON:003:1,2019-02-01T17:48:00Z,26.8015,-97.4706,0.0,0.2,328.0,0.5,'11111222,11111222,11111222' 
TCOON,ioos:station:TCOON:003:1,2019-02-01T17:54:00Z,26.8015,-97.4706,0.0,0.0,328.0,0.2,'11111222,11111222,11111222' 
TCOON,ioos:station:TCOON:003:1,2019-02-01T18:00:00Z,26.8015,-97.4706,0.0,0.0,328.0,0.0,'11111222,11111222,11111222' 
TCOON,ioos:station:TCOON:003:1,2019-02-01T18:06:00Z,26.8015,-97.4706,0.0,0.1,268.0,0.4,'11111222,11111222,11111222' 
TCOON,ioos:station:TCOON:003:1,2019-02-01T18:12:00Z,26.8015,-97.4706,0.0,0.6,178.0,0.7,'11111222,11111222,11111222' 
TCOON,ioos:station:TCOON:003:1,2019-02-01T18:18:00Z,26.8015,-97.4706,0.0,1.2,165.0,1.4,'11111222,11111222,11111222' 
TCOON,ioos:station:TCOON:003:1,2019-02-01T18:24:00Z,26.8015,-97.4706,0.0,1.2,165.0,1.4,'1111122,1111122,1111122' 
TCOON,ioos:station:TCOON:003:1,2019-02-01T18:30:00Z,26.8015,-97.4706,0.0,1.6,156.0,1.8,'11111222,11111222,11111222' 
TCOON,ioos:station:TCOON:003:1,2019-02-01T18:36:00Z,26.8015,-97.4706,0.0,1.3,146.0,1.6,'11111222,11111222,11111222' 
TCOON,ioos:station:TCOON:003:1,2019-02-01T18:42:00Z,26.8015,-97.4706,0.0,1.1,155.0,1.7,'11111222,11111222,11111222' 
TCOON,ioos:station:TCOON:003:1,2019-02-01T18:48:00Z,26.8015,-97.4706,0.0,1.1,156.0,1.8,'11111222,11111222,11111222' 
TCOON,ioos:station:TCOON:003:1,2019-02-01T18:54:00Z,26.8015,-97.4706,0.0,1.7,163.0,2.0,'11111222,11111222,11111222' 
TCOON,ioos:station:TCOON:003:1,2019-02-01T19:00:00Z,26.8015,-97.4706,0.0,1.7,149.0,2.0,'11111222,11111222,11111222' 
TCOON,ioos:station:TCOON:003:1,2019-02-01T19:06:00Z,26.8015,-97.4706,0.0,0.9,134.0,1.7,'11111222,11111222,11111222' 
TCOON,ioos:station:TCOON:003:1,2019-02-01T19:12:00Z,26.8015,-97.4706,0.0,1.0,164.0,1.2,'11111222,11111222,11111222' 
TCOON,ioos:station:TCOON:003:1,2019-02-01T19:18:00Z,26.8015,-97.4706,0.0,0.8,155.0,1.3,'11111222,11111222,11111222' 
TCOON,ioos:station:TCOON:003:1,2019-02-01T19:24:00Z,26.8015,-97.4706,0.0,0.8,155.0,1.3,'1111122,1111122,1111122' 
TCOON,ioos:station:TCOON:003:1,2019-02-01T19:30:00Z,26.8015,-97.4706,0.0,1.3,177.0,1.5,'11111222,11111222,11111222' 
TCOON,ioos:station:TCOON:003:1,2019-02-01T19:36:00Z,26.8015,-97.4706,0.0,0.1,163.0,1.2,'11111222,11111222,11111222' 
TCOON,ioos:station:TCOON:003:1,2019-02-01T19:42:00Z,26.8015,-97.4706,0.0,0.5,239.0,0.6,'11111222,11111222,11111222' 
TCOON,ioos:station:TCOON:003:1,2019-02-01T19:48:00Z,26.8015,-97.4706,0.0,0.5,242.0,0.7,'11111222,11111222,11111222' 
TCOON,ioos:station:TCOON:003:1,2019-02-01T19:54:00Z,26.8015,-97.4706,0.0,0.9,206.0,1.1,'11111222,11111222,11111222' 
TCOON,ioos:station:TCOON:003:1,2019-02-01T20:00:00Z,26.8015,-97.4706,0.0,1.1,182.0,1.2,'11111222,11111222,11111222' 
TCOON,ioos:station:TCOON:003:1,2019-02-01T20:06:00Z,26.8015,-97.4706,0.0,1.6,182.0,1.7,'11111222,11111222,11111222' 
TCOON,ioos:station:TCOON:003:1,2019-02-01T20:12:00Z,26.8015,-97.4706,0.0,1.7,192.0,1.8,'11111222,11111222,11111222' 
TCOON,ioos:station:TCOON:003:1,2019-02-01T20:18:00Z,26.8015,-97.4706,0.0,1.7,181.0,1.7,'11111222,11111222,11111222' 